Location: Cointrin
(46.2167°N, 6.1167°E)
Time: 17:55:18
(UTC+00:00)

Envisat - Visible Passes

Search period start: 05 June 2023 00:00
Search period end: 15 June 2023 00:00
Orbit: 763 x 765 km, 98.2° (Epoch: 05 June)

Date Brightness Start Highest point End Pass type
(mag) Time Alt. Az. Time Alt. Az. Time Alt. Az.
05 Jun 4.4 02:54:28 10° NNE 02:59:11 37° E 03:03:51 10° SSE visible
06 Jun 5.5 02:18:18 10° NE 02:21:43 18° E 02:25:05 10° SE visible
08 Jun 4.8 02:42:15 10° NE 02:46:40 29° E 02:51:03 10° SSE visible
09 Jun 5.6 02:06:34 10° ENE 02:09:07 14° E 02:11:40 10° ESE visible
10 Jun 4.0 03:06:36 10° NNE 03:11:32 48° E 03:16:25 10° S visible
11 Jun 5.2 02:30:07 10° NE 02:34:07 23° E 02:38:06 10° SE visible
12 Jun 5.9 01:55:41 10° ENE 01:56:30 10° E 01:57:18 10° E visible
13 Jun 4.4 02:54:18 10° NNE 02:59:02 37° E 03:03:43 10° SSE visible
14 Jun 5.4 02:18:06 10° NE 02:21:33 18° E 02:24:58 10° SE visible
